When you browse on this site, cookies collect data to enhance your experience and personalize the content and advertising you see.
Visit our Privacy Policy to learn more. By continuing to use the site, you agree to this use of cookies and data.
  • In Hungary
  • List of Countries
  • For 7 days
  • Water Temperature
  • Satellite Maps
  • Weather Map
  • News
  • Weather Widgets
  • user-avatar
    Login

    Hourly Weather Adjud

    Today, 19 March, Tuesday

    Time Temperature Precipitation Wind Pressure Humidity
    00:00 +11°C° 0 mm 3 mps 750 mmHg 77%
    01:00 +12°C° 0 mm 2 mps 750 mmHg 80%
    02:00 +11°C° 0 mm 1 mps 750 mmHg 84%
    03:00 +10°C° 0 mm 1 mps 751 mmHg 86%
    04:00 +10°C° 0 mm 1 mps 751 mmHg 88%
    05:00 +10°C° 0 mm 1 mps 751 mmHg 90%
    06:00 +10°C° 0 mm 1 mps 751 mmHg 87%
    07:00 +10°C° 0 mm 2 mps 752 mmHg 85%
    08:00 +10°C° 0 mm 2 mps 752 mmHg 83%
    09:00 +10°C° 0 mm 3 mps 752 mmHg 81%
    10:00 +10°C° 0 mm 4 mps 753 mmHg 80%
    11:00 +10°C° 0 mm 4 mps 753 mmHg 79%
    12:00 +10°C° 0 mm 4 mps 753 mmHg 78%
    13:00 +9°C° 0 mm 5 mps 753 mmHg 76%
    14:00 +9°C° 0 mm 5 mps 753 mmHg 75%
    15:00 +9°C° 0 mm 5 mps 753 mmHg 75%
    16:00 +9°C° 0 mm 5 mps 754 mmHg 76%
    17:00 +9°C° 0 mm 5 mps 754 mmHg 76%
    18:00 +8°C° 0 mm 5 mps 754 mmHg 77%
    19:00 +8°C° 0 mm 4 mps 755 mmHg 79%
    20:00 +7°C° 0 mm 4 mps 755 mmHg 80%
    21:00 +7°C° 0 mm 4 mps 756 mmHg 81%
    22:00 +7°C° 0 mm 4 mps 756 mmHg 82%
    23:00 +8°C° 0 mm 4 mps 756 mmHg 82%

    Tomorrow, 20 March, Wednesday

    Time Temperature Precipitation Wind Pressure Humidity
    00:00 +7°C° 0.1 mm 4 mps 757 mmHg 83%
    01:00 +7°C° 0.1 mm 4 mps 757 mmHg 85%
    02:00 +7°C° 0.1 mm 4 mps 757 mmHg 86%
    03:00 +7°C° 0.5 mm 4 mps 757 mmHg 85%
    04:00 +7°C° 0.5 mm 5 mps 758 mmHg 84%
    05:00 +7°C° 0.5 mm 5 mps 758 mmHg 84%
    06:00 +7°C° 0.1 mm 5 mps 758 mmHg 81%
    07:00 +7°C° 0.1 mm 6 mps 759 mmHg 79%
    08:00 +7°C° 0.1 mm 6 mps 759 mmHg 77%
    09:00 +8°C° 0 mm 6 mps 759 mmHg 71%
    10:00 +9°C° 0 mm 6 mps 760 mmHg 66%
    11:00 +10°C° 0 mm 6 mps 760 mmHg 60%
    12:00 +10°C° 0 mm 6 mps 760 mmHg 58%
    13:00 +11°C° 0 mm 6 mps 760 mmHg 55%
    14:00 +11°C° 0 mm 6 mps 760 mmHg 52%
    15:00 +12°C° 0 mm 5 mps 760 mmHg 52%
    16:00 +12°C° 0 mm 5 mps 760 mmHg 53%
    17:00 +10°C° 0 mm 5 mps 760 mmHg 54%
    18:00 +10°C° 0 mm 4 mps 761 mmHg 57%
    19:00 +8°C° 0 mm 4 mps 761 mmHg 60%
    20:00 +7°C° 0 mm 4 mps 762 mmHg 64%
    21:00 +7°C° 0 mm 4 mps 762 mmHg 65%
    22:00 +7°C° 0 mm 3 mps 762 mmHg 66%
    23:00 +7°C° 0 mm 3 mps 763 mmHg 67%

    Day after tomorrow, 21 March, Thursday

    Time Temperature Precipitation Wind Pressure Humidity
    00:00 +7°C° 0 mm 3 mps 763 mmHg 67%
    01:00 +7°C° 0 mm 3 mps 763 mmHg 66%
    02:00 +7°C° 0 mm 3 mps 763 mmHg 65%
    03:00 +5°C° 0 mm 3 mps 763 mmHg 67%
    04:00 +4°C° 0 mm 3 mps 763 mmHg 68%
    05:00 +4°C° 0 mm 3 mps 763 mmHg 70%
    06:00 +4°C° 0 mm 3 mps 763 mmHg 65%
    07:00 +5°C° 0 mm 3 mps 763 mmHg 61%
    08:00 +5°C° 0 mm 3 mps 763 mmHg 57%
    09:00 +8°C° 0 mm 3 mps 763 mmHg 51%
    10:00 +9°C° 0 mm 3 mps 763 mmHg 44%
    11:00 +11°C° 0 mm 3 mps 763 mmHg 38%
    12:00 +12°C° 0 mm 3 mps 762 mmHg 36%
    13:00 +13°C° 0 mm 3 mps 761 mmHg 33%
    14:00 +14°C° 0 mm 4 mps 761 mmHg 30%
    15:00 +14°C° 0 mm 4 mps 761 mmHg 31%
    16:00 +14°C° 0 mm 4 mps 760 mmHg 31%
    17:00 +14°C° 0 mm 4 mps 760 mmHg 31%
    18:00 +13°C° 0 mm 3 mps 760 mmHg 36%
    19:00 +12°C° 0 mm 3 mps 761 mmHg 41%
    20:00 +12°C° 0 mm 2 mps 761 mmHg 46%
    21:00 +12°C° 0 mm 2 mps 761 mmHg 53%
    22:00 +11°C° 0 mm 3 mps 761 mmHg 60%
    23:00 +10°C° 0 mm 3 mps 762 mmHg 66%

    22 March, Friday

    Time Temperature Precipitation Wind Pressure Humidity
    00:00 +10°C° 0 mm 3 mps 762 mmHg 69%
    01:00 +10°C° 0 mm 3 mps 762 mmHg 72%
    02:00 +9°C° 0 mm 3 mps 762 mmHg 75%
    03:00 +9°C° 0 mm 3 mps 762 mmHg 77%
    04:00 +8°C° 0 mm 2 mps 762 mmHg 79%
    05:00 +8°C° 0 mm 2 mps 762 mmHg 81%
    06:00 +8°C° 0 mm 2 mps 762 mmHg 77%
    07:00 +9°C° 0 mm 2 mps 762 mmHg 74%
    08:00 +10°C° 0 mm 2 mps 762 mmHg 70%
    09:00 +12°C° 0 mm 2 mps 762 mmHg 64%
    10:00 +12°C° 0 mm 3 mps 762 mmHg 58%
    11:00 +13°C° 0 mm 4 mps 762 mmHg 53%
    12:00 +14°C° 0 mm 3 mps 761 mmHg 49%
    13:00 +16°C° 0 mm 3 mps 761 mmHg 46%
    14:00 +17°C° 0 mm 3 mps 760 mmHg 43%
    15:00 +17°C° 0 mm 3 mps 760 mmHg 42%
    16:00 +17°C° 0 mm 3 mps 760 mmHg 42%
    17:00 +17°C° 0 mm 2 mps 759 mmHg 42%
    18:00 +16°C° 0 mm 2 mps 760 mmHg 48%
    19:00 +14°C° 0 mm 1 mps 760 mmHg 55%
    20:00 +13°C° 0 mm 1 mps 760 mmHg 61%
    21:00 +12°C° 0 mm 1 mps 760 mmHg 64%
    22:00 +12°C° 0 mm 1 mps 760 mmHg 67%
    23:00 +11°C° 0 mm 1 mps 760 mmHg 70%

    23 March, Saturday

    Time Temperature Precipitation Wind Pressure Humidity
    00:00 +11°C° 0 mm 1 mps 760 mmHg 72%
    01:00 +10°C° 0 mm 1 mps 760 mmHg 73%
    02:00 +10°C° 0 mm 1 mps 760 mmHg 75%
    03:00 +10°C° 0 mm 1 mps 760 mmHg 75%
    04:00 +9°C° 0 mm 1 mps 759 mmHg 76%
    05:00 +9°C° 0 mm 1 mps 759 mmHg 76%
    06:00 +10°C° 0 mm 1 mps 759 mmHg 72%
    07:00 +11°C° 0 mm 1 mps 759 mmHg 68%
    08:00 +11°C° 0 mm 1 mps 760 mmHg 64%
    09:00 +13°C° 0 mm 2 mps 759 mmHg 58%
    10:00 +15°C° 0 mm 2 mps 759 mmHg 52%
    11:00 +17°C° 0 mm 3 mps 759 mmHg 46%
    12:00 +18°C° 0 mm 3 mps 758 mmHg 45%
    13:00 +18°C° 0 mm 3 mps 758 mmHg 44%
    14:00 +19°C° 0 mm 3 mps 757 mmHg 42%
    15:00 +18°C° 0 mm 3 mps 757 mmHg 44%
    16:00 +18°C° 0 mm 3 mps 757 mmHg 45%
    17:00 +18°C° 0 mm 3 mps 757 mmHg 46%
    18:00 +17°C° 0 mm 3 mps 757 mmHg 49%
    19:00 +16°C° 0 mm 2 mps 757 mmHg 53%
    20:00 +15°C° 0 mm 2 mps 758 mmHg 57%
    21:00 +15°C° 0 mm 2 mps 758 mmHg 58%
    22:00 +15°C° 0 mm 1 mps 758 mmHg 59%
    23:00 +15°C° 0 mm 1 mps 758 mmHg 60%

    24 March, Sunday

    Time Temperature Precipitation Wind Pressure Humidity
    00:00 +14°C° 0 mm 1 mps 758 mmHg 62%
    01:00 +14°C° 0 mm 1 mps 758 mmHg 64%
    02:00 +13°C° 0 mm 1 mps 758 mmHg 67%
    03:00 +13°C° 0 mm 1 mps 758 mmHg 68%
    04:00 +12°C° 0 mm 1 mps 758 mmHg 69%
    05:00 +12°C° 0 mm 1 mps 757 mmHg 70%
    06:00 +12°C° 0 mm 1 mps 757 mmHg 67%
    07:00 +13°C° 0 mm 1 mps 757 mmHg 65%
    08:00 +14°C° 0 mm 1 mps 757 mmHg 62%
    09:00 +16°C° 0 mm 1 mps 757 mmHg 55%
    10:00 +17°C° 0 mm 2 mps 756 mmHg 48%
    11:00 +19°C° 0 mm 2 mps 756 mmHg 41%
    12:00 +20°C° 0 mm 2 mps 755 mmHg 37%
    13:00 +22°C° 0 mm 3 mps 754 mmHg 33%
    14:00 +24°C° 0 mm 3 mps 754 mmHg 30%
    15:00 +24°C° 0 mm 3 mps 753 mmHg 30%
    16:00 +24°C° 0 mm 3 mps 753 mmHg 31%
    17:00 +22°C° 0 mm 4 mps 752 mmHg 32%
    18:00 +21°C° 0 mm 4 mps 752 mmHg 36%
    19:00 +19°C° 0 mm 3 mps 752 mmHg 40%
    20:00 +17°C° 0 mm 3 mps 751 mmHg 44%
    21:00 +16°C° 0 mm 3 mps 751 mmHg 46%
    22:00 +16°C° 0 mm 2 mps 751 mmHg 48%
    23:00 +15°C° 0 mm 2 mps 751 mmHg 50%
    Show more